www.pogodaiklimat.ru
ПОГОДА в Монтгомери
Время
и дата
11:54 27.06
12:54 27.06
13:54 27.06
14:54 27.06
15:54 27.06
16:54 27.06
17:54 27.06
18:54 27.06
19:54 27.06
20:54 27.06
21:54 27.06
22:54 27.06
23:54 27.06
00:54 28.06
01:54 28.06
02:54 28.06
03:54 28.06
04:54 28.06
05:54 28.06
06:54 28.06
07:54 28.06
08:54 28.06
09:54 28.06
10:54 28.06
11:54 28.06
12:54 28.06
13:54 28.06
14:54 28.06
15:54 28.06
16:54 28.06
17:54 28.06
18:54 28.06
19:54 28.06
20:54 28.06
21:54 28.06
22:54 28.06
23:54 28.06
00:54 29.06
01:54 29.06
02:54 29.06
03:54 29.06
04:24 29.06
04:54 29.06
05:54 29.06
06:54 29.06
07:54 29.06
08:54 29.06
09:54 29.06
Ветер
(напр.,м/с)
Видим. Явления Облачность Т
(С)
Тd
(С)
f
(%)
Тe
(С)
Тes
(С)
Комфортность P
(гПа)
Po
(гПа)
Тmin
(С)
Tmax
(С)
R
(мм)
R24
(мм)
S
(см)
СЗ 2 16 км слабый дождь 8/5 1470 м
[Ac]
+23.3 +18.3 73 +29 +34 душно 1013.5 1000.5
С 2 16 км ясно +26.1 +17.2 58 +30 +44 душно 1013.1 1000.2 +21.7 +26.1 0.8
З 2
{4}
16 км ясно +25.6 +15.6 54 +29 +39 душно 1012.9 999.8
З 2 16 км 5/5 1440 м +25.0 +15.6 56 +28 +34 жарко 1012.8 999.8
СЗ 2 16 км ясно +24.4 +14.4 54 +27 +33 жарко 1012.7 999.5
З 1 16 км ясно +23.3 +16.1 64 +28 +35 душно 1013.3 1000.2
З 1 16 км ясно +22.2 +16.7 71 +27 +31 душно 1013.9 1000.8
СЗ 1 16 км ясно +23.3 +16.1 64 +28 +29 душно 1014.4 1001.2 +22.2 +26.1
штиль 0 16 км ясно +18.3 +15.6 84 +19 +19 1015.2 1001.8
В 1 16 км ясно +16.1 +14.4 90 +16 +16 1016.1 1002.8
ЮЗ 1 16 км ясно +15.0 +13.3 90 +15 +15 1016.6 1003.2
Ю 1 16 км 8/8 1950 м +14.4 +12.8 90 +14 +14 1017.1 1003.8
СЗ 1 16 км 10/10 1950 м +15.6 +12.2 80 +16 +16 1017.6 1004.2
З 1 16 км 10/10 1800 м +17.2 +10.6 65 +18 +18 1017.8 1004.5 +13.9 +23.3
З 1 16 км 8/8 1950 м
[Ac]
+16.7 +8.9 60 +17 +17 1018.1 1004.8
СЗ 1 16 км 10/0 2100 м
[Ac]
+16.7 +8.9 60 +17 +17 1018.3 1005.2
З 1 16 км 8/0 2250 м
[Ac]
+15.6 +8.9 64 +15 +15 1018.8 1005.5
З 1 16 км 2/0 2100 м
[Ac]
+13.9 +8.9 72 +13 +13 1019.5 1006.2
З 2 16 км ясно +15.6 +9.4 67 +15 +15 1020.1 1006.8
СЗ 2 16 км ясно +17.2 +10.0 63 +17 +17 1020.6 1007.2 +13.9 +17.2 0.8
нст 1 16 км ясно +18.9 +10.0 56 +20 +23 1020.9 1007.5
СЗ 2 16 км ясно +20.0 +10.6 55 +21 +26 комфорт 1020.7 1007.5
нст 1 16 км 2/2 1380 м +20.6 +9.4 49 +23 +33 комфорт 1021.0 1007.8
штиль 0 16 км 8/8 1470 м +21.1 +10.0 49 +23 +27 комфорт 1021.2 1007.8
С 1 16 км 8/8 1500 м +21.7 +10.6 49 +23 +27 комфорт 1021.4 1008.2
С 1 16 км 2/2 1500 м +23.3 +11.1 46 +26 +39 жарко 1021.3 1007.8 +17.2 +23.3
нст 1 16 км 8/8 1800 м +24.4 +11.1 43 +26 +29 жарко 1021.1 1007.8
штиль 0 16 км 5/5 1950 м +23.9 +9.4 40 +25 +36 комфорт 1020.9 1007.5
штиль 0 16 км 5/5 1800 м +23.3 +10.0 43 +25 +33 комфорт 1020.5 1007.2
нст 1 16 км ясно +23.9 +10.0 41 +25 +33 комфорт 1020.2 1006.8
ЮЗ 1 16 км ясно +23.9 +9.4 40 +25 +29 комфорт 1020.5 1007.2
штиль 0 16 км 2/0 2100 м
[Ac]
+21.1 +13.9 63 +24 +25 комфорт 1020.9 1007.5 +21.1 +25.0
штиль 0 16 км 8/0 2100 м
[Ac]
+16.7 +13.3 80 +17 +17 1021.3 1007.8
Ю 1 16 км 8/0 2100 м
[Ac]
+15.6 +13.9 90 +15 +15 1021.9 1008.5
ЮЗ 1 16 км ясно +13.9 +12.8 93 +13 +13 1022.3 1008.8
штиль 0 16 км ясно +13.3 +12.2 93 +13 +13 1022.4 1009.2
штиль 0 16 км ясно +13.9 +12.8 93 +13 +13 1022.6 1009.2
штиль 0 16 км ясно +13.3 +11.7 90 +13 +13 1022.9 1009.5 +12.2 +21.1
штиль 0 16 км ясно +11.7 +11.1 96 +11 +11 1022.7 1009.5
штиль 0 16 км ясно +11.7 +10.6 93 +11 +11 1022.9 1009.5
штиль 0 16 км ясно +11.1 +10.6 97 +10 +10 1023.3 1009.8
штиль 0 8 км дымка 2/2 60 м +10.0 +9.4 96 +9 +9 1009.8
штиль 0 16 км ясно +10.0 +9.4 96 +9 +9 1023.6 1010.2
штиль 0 16 км ясно +13.3 +12.2 93 +13 +13 1023.8 1010.5
штиль 0 16 км 2/0 2100 м
[Ac]
+16.1 +12.8 81 +16 +18 1024.1 1010.8 +10.0 +16.1
штиль 0 16 км 2/2 1950 м +19.4 +13.9 70 +21 +26 комфорт 1024.0 1010.5
Ю 1 16 км ясно +21.7 +14.4 63 +25 +33 комфорт 1023.7 1010.2
ЮЗ 2 16 км ясно +24.4 +13.3 50 +27 +35 жарко 1023.3 1009.8
Местоположение метеостанции Orange County Airport: широта 41.5092 долгота -74.2650 высота над уровнем моря 111 м.
В архиве по умолчанию представлена погода в Монтгомери за последние 1-2 суток. Обновление информации о фактической погоде в базе происходит ежечасно! Архивные данные за месяц целиком и за предыдущие месяцы Вы можете получить, выбрав интересующий диапазон дат из раскрывающегося списка и нажав кнопку "Ввод!".
Внимание! Архив погоды МЕТАР в базе сайта по станциям, не включенным в климатический монитор, хранится не более 60 дней. Нет смысла пытаться выбрать более раннюю дату.
*Определитесь, кто Вы:
Внимание! Время в таблицах - местное (без учета летнего времени). Для получения всемирного времени необходимо вычесть поправку, которая равна -5 ч.
Смотрите также архив погоды в соседних городах и на ближайших метеорологических станциях:
Партнеры нашего сайта:      
Пояснения к столбцам:
  • Ветер - указаны скорость ветра в м/с - средняя за 10 мин, порывы в срок и между сроками (в фигурных скобках) и направление, откуда дует ветер: С - северный,
  • СВ - северо-восточный, В - восточный, ЮВ - юго-восточный, Ю - южный, ЮЗ - юго-западный, З - западный, СЗ - северо-западный.
  • Видимость - горизонтальная дальность видимости в метрах или километрах. При видимости от 1 до 10 км при отсутствии осадков обычно наблюдается дымка, при ухудшении видимости до 1 км и менее - туман. В сухую погоду видимость может ухудшаться дымом, пылью или мглою.
  • Явления - указаны атмосферные явления, наблюдавшиеся в срок или в последний час перед сроком; фигурными скобками обозначены явления, наблюдавшиеся между сроками (за 1-3 часа до срока); квадратными скобками обозначены град или гололедные отложения с указанием их диаметра в мм.
  • Облачность - указаны через наклонную черту общая и нижняя облачность в баллах и высота нижней границы облаков в метрах; квадратными скобками обозначены формы облаков: Ci - перистые, Cs - перисто-слоистые, Cc - перисто-кучевые, Ac - высококучевые, As - высокослоистые, Sc - слоисто-кучевые, Ns - слоисто-дождевые, Cu - кучевые, Cb - кучево-дождевые. Подробнее классификацию облаков см. в Атласе облаков (PDF).
  • T - Температура воздуха - температура, измеренная на высоте 2 м над землей.
  • Td - Температура точки росы - температура, при понижении до которой содержащийся в воздухе водяной пар достигнет насыщения.
  • f - Относительная влажность воздуха - влажноcть воздуха, измеренная на высоте 2 м над землей.
  • Te - Эффективная температура - температура, которую ощущает одетый по сезону человек в тени. Характеристика душности погоды. При расчете учитывается влияние влажности воздуха и скорости ветра на теплоощущения человека.
  • Tes - Эффективная температура на солнце - температура, которую ощущает человек, с поправкой на солнечный нагрев. Характеристика знойности погоды. Зависит от высоты солнца над горизонтом, облачности и скорости ветра. Ночью, в пасмурную погоду, а также при ветре 12 м/с и более поправка равна нулю.
  • P - Атмосферное давление - приведенное к уровню моря атмосферное давление.
  • Po - Атмосферное давление - измеренное на уровне метеостанции атмосферное давление.
  • Tmin - Минимальная температура - минимум температуры воздуха на высоте 2 м над землей.
  • Tmax - Максимальная температура - максимум температуры воздуха на высоте 2 м над землей.
  • R - Количество осадков - Количество выпавших осадков за период времени, мм. При наведении курсора мыши на число - период времени, за который выпало указанное количество осадков.
  • R24 - Количество осадков - Количество выпавших осадков за 24 часа, мм.
  • S - Снежный покров - Высота снежного покрова, см. При наведении курсора мыши на число - состояние снежного покрова и степень покрытия местности в баллах.